Regional Weather Roundup
Issued by NWS Lake Charles, LA

Home | Current Version | Previous Version | Text Only | Print | Product List | Glossary On
Versions: 1 2 3 4 5 6 7 8 9 10 11 12 13 14 15 16 17 18 19 20 21 22 23 24 25 26 27 28 29 30 31 32 33 34 35 36 37 38 39 40 41 42 43 44 45 46 47 48 49 50
000
ASUS44 KLCH 020110
RWRLCH
RWRLCH
REGIONAL WEATHER ROUNDUP
NATIONAL WEATHER SERVICE LAKE CHARLES LA
800 PM CDT WED APR 01 2015

Note: "fair" indicates few or no clouds below 12,000 feet with no
significant weather and/or obstructions to visibility.


ACROSS SOUTHEAST TEXAS

CITY           SKY/WX    TMP DP  RH WIND       PRES   REMARKS
BEAUMONT       CLOUDY    71  67  87 SE7       29.96S
BEAUMONT CITY    N/A     71  65  81 S5        29.97R
ORANGE         CLOUDY    72  65  80 SE8       29.99R
JASPER         CLOUDY    73  69  85 S3        29.98R
$$

ACROSS CENTRAL LOUISIANA

CITY           SKY/WX    TMP DP  RH WIND       PRES   REMARKS
LEESVILLE      CLOUDY    70  65  83 SE7       29.95F
FULLERTON        N/A     75  62  64 CALM      29.95R
ALEXANDRIA INT CLOUDY    74  63  68 S10       29.95S
ESLER FIELD    CLOUDY    74  63  68 S7        29.97S
DERIDDER         N/A     72  65  79 CALM      29.99S
OAKDALE        CLOUDY    71  65  82 CALM      29.98S
OPELOUSAS        N/A     72  64  77 S6        30.00R
$$

ACROSS SOUTHWEST AND SOUTH CENTRAL LOUISIANA

CITY           SKY/WX    TMP DP  RH WIND       PRES   REMARKS
SULPHUR        CLOUDY    73  68  85 SE7       29.99R HAZE
LAKE CHARLES   CLOUDY    73  67  81 S5        29.99R
CHENNAULT INT  MOCLDY    73  66  78 S8        29.99R
CAMERON PHI    CLEAR     72  68  88 S7G14     30.01R
DEQUINCY         N/A     71  69  93 SE7       29.98R
JENNINGS       MOCLDY    73  66  80 SE7       29.99R
LAFAYETTE      CLOUDY    73  66  78 S5        30.01R
NEW IBERIA     CLOUDY    73  66  78 S10       30.02R
ABBEVILLE        N/A     71  67  88 SE6       30.01R
PATTERSON      CLOUDY    72  64  78 S5        30.03S
SALT POINT       N/A     72  68  87 E3        30.00S
$$

SELECTED SITES ACROSS THE REGION

CITY           SKY/WX    TMP DP  RH WIND       PRES   REMARKS
HOUSTON BUSH   MOCLDY    74  66  76 S9        29.94R
HOUSTON HOBBY  MOCLDY    73  67  81 S9        29.95R
GALVESTON      MOCLDY    71  68  90 SE13      29.96R
COLLEGE STAT   PTCLDY    69  65  86 SE9       29.91R
CONROE         CLOUDY    70  68  93 S6        29.95R
HUNTSVILLE     LGT RAIN  70  68  93 S6        29.94R
LUFKIN         CLOUDY    73  67  81 S6        29.95R
SHREVEPORT     MOCLDY    74  61  63 S15       29.90R
MONROE         CLOUDY    75  62  64 SW10      29.95R
NATCHEZ MS     CLOUDY    75  61  60 S10       29.99S
BATON ROUGE    CLOUDY    74  62  66 S8        30.01S
N.O. INTL ARPT CLOUDY    74  64  71 S9        30.03R
SLIDELL        CLOUDY    74  66  76 SE5       30.04R
$$

MARINE REPORTS

STATION/POSITION TIME  TEMP    WIND        PRES    VSBY  WAVE
                       AIR SEA DIR/SP/G                  HT/PER
                 (UTC) (F)     (DEG/KT/KT) (MB)    (MI)  (FT/S)
BUOY 30 S HIGH I 0050   70 70  140/  6/  8 1014.2R         3/ 6
SEA RIM ST PARK  0100   71     170/  9/ 11 1015.4R
PORT ARTHUR      0000      70  160/  4/  8 1014.7R
SABINE PASS N    0000   72 69  170/  9/ 13 1014.4R
TEXAS POINT      NOT AVBL
CALCASIEU PASS   0000   72 72  170/ 11/ 13   N/A
LK CHARLES BEACH 0000   74 74              1015.0R
MARSH ISLAND     NOT AVBL
FRESH WATER LOCK 0000   72 76  100/  6/  9 1015.4F
AMERADA PASS     0000   73 64  130/  2/  4 1016.1F
$$



USA.gov is the U.S. government's official web portal to all federal, state and local government web resources and services.